Location: Unspecified
(44.4377°N, 88.0525°W)
Time: 05:13:45
(UTC-05:00)

Resurs 1-4 Rocket - Visible Passes

Search period start: 31 August 2014 00:00
Search period end: 10 September 2014 00:00
Orbit: 800 x 815 km, 98.3° (Epoch: 29 August)

Date Brightness Start Highest point End Pass type
(mag) Time Alt. Az. Time Alt. Az. Time Alt. Az.
31 Aug 2.3 05:00:46 10° NNE 05:06:04 78° ESE 05:11:22 10° S visible
01 Sep 3.0 04:36:30 10° NNE 04:41:36 48° E 04:46:41 10° S visible
02 Sep 3.9 04:12:27 10° NE 04:17:03 29° E 04:21:37 10° SSE visible
03 Sep 4.6 03:48:49 10° NE 03:52:24 18° E 03:55:57 10° SE visible
03 Sep 2.2 05:27:28 10° N 05:32:41 62° WNW 05:37:54 10° SSW visible
04 Sep 5.0 03:26:38 10° ENE 03:27:39 11° E 03:28:40 10° E visible
04 Sep 2.2 05:03:00 10° NNE 05:08:19 82° ESE 05:13:37 10° SSW visible
05 Sep 2.9 04:38:42 10° NNE 04:43:51 50° E 04:48:59 10° S visible
06 Sep 3.8 04:14:37 10° NNE 04:19:18 31° E 04:23:57 10° SSE visible
07 Sep 4.5 03:50:55 10° NE 03:54:40 19° E 03:58:23 10° SE visible
07 Sep 2.2 05:29:43 10° N 05:34:55 59° WNW 05:40:06 10° SSW visible
08 Sep 4.9 03:28:18 10° ENE 03:29:56 11° E 03:31:33 10° ESE visible
08 Sep 2.1 05:05:13 10° NNE 05:10:33 87° ESE 05:15:51 10° SSW visible
09 Sep 2.8 04:40:54 10° NNE 04:46:06 54° E 04:51:16 10° S visible
